AJ5TT Weather Reports


Display with metric or nautical units.
time (UTC)temp
F
wind
direction
speed
MPH
gust
MPH
rain 1hr
in
rain 24hr
in
rain mn
in
humidity
%
barometer
mb
20260902223059 93 223 6.0 13.0 0.00 0.00 0.00 63 1013.0
20260902221606 93 167 3.0 13.0 0.00 0.00 0.00 61 1013.0
20260902220116 93 210 5.0 11.0 0.00 0.00 0.00 60 1013.0
20260902214601 93 236 5.0 8.0 0.00 0.01 0.00 58 1013.0
20260902213059 94 196 2.0 7.0 0.00 0.01 0.00 57 1013.0
20260902211605 94 229 3.0 6.0 0.00 0.01 0.00 57 1013.2
20260902210107 95 178 3.0 7.0 0.00 0.01 0.00 56 1013.2
20260902204603 95 232 3.0 9.0 0.00 0.01 0.00 57 1013.3
20260902203103 95 176 4.0 9.0 0.00 0.01 0.00 58 1013.4
20260902201605 95 46 2.0 8.0 0.00 0.01 0.00 60 1013.6
20260902194603 94 219 3.0 7.0 0.00 0.01 0.00 61 1014.0
20260902193058 92 242 4.0 8.0 0.00 0.01 0.00 64 1014.2
20260902191554 92 234 3.0 11.0 0.00 0.01 0.00 64 1014.3
20260902190112 93 223 4.0 10.0 0.00 0.01 0.00 64 1014.5
20260902184602 92 259 4.0 8.0 0.00 0.01 0.00 66 1014.5
20260902183101 91 211 4.0 10.0 0.00 0.01 0.00 67 1014.7
20260902181557 90 224 4.0 8.0 0.00 0.01 0.00 67 1014.9
20260902180059 90 203 3.0 8.0 0.00 0.01 0.00 70 1015.2
20260902174605 89 222 3.0 8.0 0.00 0.01 0.00 68 1015.7
20260902173103 90 208 5.0 12.0 0.00 0.01 0.00 70 1015.8
20260902171609 89 219 5.0 10.0 0.00 0.01 0.00 72 1015.9
20260902170106 89 242 3.0 11.0 0.00 0.01 0.00 74 1016.2
20260902164609 87 213 3.0 9.0 0.00 0.01 0.00 78 1016.4
20260902163108 87 222 4.0 11.0 0.00 0.01 0.00 78 1016.3
20260902161609 87 226 6.0 12.0 0.00 0.01 0.00 78 1016.4
20260902160117 87 250 5.0 12.0 0.00 0.01 0.00 81 1016.4
20260902154605 85 249 5.0 11.0 0.00 0.01 0.00 83 1016.4
20260902153101 85 232 2.0 9.0 0.00 0.01 0.00 84 1016.4
20260902151614 84 246 3.0 9.0 0.00 0.01 0.00 85 1016.2
20260902150104 83 242 3.0 5.0 0.00 0.01 0.00 85 1016.2
20260902144559 83 252 2.0 4.0 0.00 0.01 0.00 85 1016.2
20260902143058 82 233 1.0 3.0 0.00 0.01 0.00 85 1015.9
20260902141601 81 232 1.0 2.0 0.00 0.01 0.00 85 1016.0
20260902134610 80 0 0.0 0.0 0.00 0.01 0.00 86 1016.0
20260902133107 79 0 0.0 2.0 0.00 0.01 0.00 85 1015.8
20260902131607 79 188 1.0 2.0 0.00 0.01 0.00 85 1015.6
20260902130104 78 199 0.0 4.0 0.00 0.01 0.00 85 1015.7
20260902124558 78 207 0.0 2.0 0.00 0.01 0.00 86 1015.5
20260902123105 78 0 0.0 2.0 0.00 0.01 0.00 85 1015.3
20260902121602 78 180 1.0 3.0 0.00 0.01 0.00 83 1014.9
20260902114559 79 187 4.0 10.0 0.00 0.01 0.00 88 1014.9
20260902113056 80 201 1.0 3.0 0.00 0.01 0.00 92 1014.8
20260902111602 79 0 0.0 2.0 0.00 0.01 0.00 92 1014.5
20260902110105 79 234 1.0 3.0 0.00 0.01 0.00 91 1014.6
20260902104618 79 0 0.0 2.0 0.00 0.01 0.00 91 1014.6
20260902103105 79 0 0.0 4.0 0.00 0.01 0.00 91 1014.5
20260902101606 79 215 0.0 4.0 0.00 0.01 0.00 91 1014.5
20260902100123 79 201 1.0 3.0 0.00 0.01 0.00 91 1014.3
20260902094557 79 217 0.0 2.0 0.00 0.01 0.00 91 1014.4
20260902093108 79 217 1.0 3.0 0.00 0.01 0.00 91 1014.4
20260902091616 79 219 1.0 3.0 0.00 0.01 0.00 91 1014.3
20260902090101 79 198 1.0 3.0 0.00 0.01 0.00 91 1014.3
20260902084607 79 221 1.0 3.0 0.00 0.01 0.00 91 1014.2
20260902083111 79 219 1.0 3.0 0.00 0.01 0.00 91 1014.3
20260902081617 79 229 1.0 4.0 0.00 0.01 0.00 91 1014.4
20260902080110 79 211 1.0 4.0 0.00 0.01 0.00 90 1014.6
20260902074606 79 200 2.0 5.0 0.00 0.01 0.00 90 1014.5
20260902073101 79 216 2.0 4.0 0.00 0.01 0.00 90 1014.4
20260902071601 80 203 2.0 7.0 0.00 0.01 0.00 90 1014.5
20260902070107 80 215 2.0 6.0 0.00 0.01 0.00 89 1014.5
20260902064612 80 235 2.0 5.0 0.00 0.01 0.00 89 1014.5
20260902063132 80 242 2.0 4.0 0.00 0.01 0.00 89 1014.6
20260902060137 80 223 1.0 4.0 0.00 0.01 0.00 89 1014.5
20260902054604 80 198 1.0 4.0 0.00 0.01 0.00 88 1014.4
20260902053104 80 208 1.0 3.0 0.00 0.01 0.00 88 1014.5
20260902051604 80 225 1.0 3.0 0.00 0.01 0.00 87 1014.6
20260902050058 80 214 1.0 4.0 0.00 0.01 0.00 87 1014.6
20260902044602 80 219 2.0 4.0 0.00 0.01 0.01 86 1014.6
20260902043109 81 204 2.0 5.0 0.00 0.01 0.01 85 1014.6
20260902041554 81 221 2.0 4.0 0.00 0.01 0.01 85 1014.6
20260902040108 80 0 0.0 2.0 0.00 0.01 0.01 85 1014.6
20260902034604 80 0 0.0 2.0 0.00 0.01 0.01 85 1014.7
20260902033114 80 205 0.0 2.0 0.00 0.01 0.01 85 1014.8
20260902031608 80 0 0.0 0.0 0.00 0.01 0.01 85 1014.5
20260902024618 81 0 0.0 2.0 0.00 0.01 0.01 83 1014.1
20260902023100 81 0 1.0 2.0 0.00 0.01 0.01 83 1014.0
20260902021604 80 0 0.0 0.0 0.00 0.01 0.01 84 1013.7
20260902020133 80 0 0.0 0.0 0.00 0.01 0.01 83 1013.6
20260902014604 80 0 0.0 0.0 0.00 0.01 0.01 83 1013.5
20260902013106 81 0 0.0 0.0 0.00 0.01 0.01 83 1013.2
20260902011555 81 230 1.0 2.0 0.00 0.01 0.01 82 1013.1
20260902010106 81 208 1.0 2.0 0.00 0.01 0.01 81 1013.2
20260902004601 81 0 0.0 2.0 0.00 0.01 0.01 80 1013.3
20260902003104 82 0 1.0 3.0 0.00 0.01 0.01 79 1013.4
20260902001602 82 360 1.0 2.0 0.00 0.01 0.01 79 1013.6
20260901234612 83 9 3.0 5.0 0.00 0.01 0.01 78 1013.4
20260901233100 83 300 2.0 4.0 0.00 0.01 0.01 80 1013.4
20260901231554 83 360 2.0 8.0 0.00 0.01 0.01 80 1013.5
20260901230105 83 28 4.0 11.0 0.00 0.01 0.01 79 1013.7